KF6ILA Weather Reports


Display with metric or nautical units.
time (UTC)temp
F
wind
direction
speed
MPH
gust
MPH
rain 1hr
in
rain 24hr
in
rain mn
in
humidity
%
barometer
mb
20260906091053 68 256 11.0 16.0 0.00 0.00 0.00 68 1015.3
20260906090556 68 258 9.0 15.0 0.00 0.00 0.00 68 1015.3
20260906090059 68 268 9.0 15.0 0.00 0.00 0.00 67 1015.4
20260906085637 68 271 7.0 14.0 0.00 0.00 0.00 66 1015.4
20260906085602 68 271 7.0 14.0 0.00 0.00 0.00 66 1015.4
20260906084608 68 257 9.0 16.0 0.00 0.00 0.00 65 1015.6
20260906083614 68 258 7.0 16.0 0.00 0.00 0.00 64 1015.6
20260906083117 68 256 11.0 16.0 0.00 0.00 0.00 64 1015.7
20260906082620 68 258 8.0 14.0 0.00 0.00 0.00 64 1015.7
20260906082123 68 270 8.0 14.0 0.00 0.00 0.00 65 1015.6
20260906081626 68 261 8.0 13.0 0.00 0.00 0.00 65 1015.6
20260906081129 68 265 8.0 14.0 0.00 0.00 0.00 65 1015.6
20260906080632 68 253 10.0 14.0 0.00 0.00 0.00 65 1015.9
20260906080135 68 261 9.0 13.0 0.00 0.00 0.00 65 1015.9
20260906075638 68 269 7.0 11.0 0.00 0.00 0.00 66 1016.0
20260906075141 68 260 8.0 11.0 0.00 0.00 0.00 66 1016.0
20260906073153 68 257 8.0 13.0 0.00 0.00 0.00 65 1016.2
20260906072159 68 245 9.0 12.0 0.00 0.00 0.00 65 1016.3
20260906071702 68 248 8.0 11.0 0.00 0.00 0.00 65 1016.4
20260906070708 68 253 8.0 11.0 0.00 0.00 0.00 66 1016.3
20260906070211 68 257 7.0 12.0 0.00 0.00 0.00 66 1016.4
20260906065714 68 246 7.0 12.0 0.00 0.00 0.00 66 1016.4
20260906065217 68 248 6.0 11.0 0.00 0.00 0.00 66 1016.3
20260906064720 68 246 7.0 11.0 0.00 0.00 0.00 66 1016.4
20260906064223 68 245 7.0 10.0 0.00 0.00 0.00 66 1016.4
20260906063726 68 249 7.0 10.0 0.00 0.00 0.00 66 1016.3
20260906063229 68 244 6.0 10.0 0.00 0.00 0.00 66 1016.3
20260906062732 68 251 7.0 11.0 0.00 0.00 0.00 66 1016.2
20260906062235 68 247 7.0 11.0 0.00 0.00 0.00 66 1016.1
20260906061241 68 241 7.0 11.0 0.00 0.00 0.00 65 1016.2
20260906060744 68 249 7.0 11.0 0.00 0.00 0.00 65 1016.2
20260906060321 68 243 8.0 11.0 0.00 0.00 0.00 65 1016.3
20260906060247 68 243 8.0 11.0 0.00 0.00 0.00 65 1016.3
20260906055750 68 247 8.0 11.0 0.00 0.00 0.00 65 1016.4
20260906055253 68 245 7.0 11.0 0.00 0.00 0.00 65 1016.5
20260906054756 68 249 6.0 11.0 0.00 0.00 0.00 64 1016.4
20260906054259 69 257 6.0 10.0 0.00 0.00 0.00 65 1016.6
20260906053802 68 263 5.0 10.0 0.00 0.00 0.00 64 1016.5
20260906053305 68 264 6.0 10.0 0.00 0.00 0.00 64 1016.5
20260906052808 68 250 7.0 10.0 0.00 0.00 0.00 65 1016.5
20260906052311 68 256 7.0 11.0 0.00 0.00 0.00 64 1016.5
20260906051317 68 261 8.0 12.0 0.00 0.00 0.00 64 1016.5
20260906050820 68 258 7.0 12.0 0.00 0.00 0.00 64 1016.6
20260906050323 68 260 8.0 12.0 0.00 0.00 0.00 64 1016.6
20260906045329 68 262 7.0 12.0 0.00 0.00 0.00 64 1016.5
20260906044832 68 260 8.0 12.0 0.00 0.00 0.00 64 1016.6
20260906043838 68 267 6.0 11.0 0.00 0.00 0.00 65 1016.6
20260906043341 68 260 7.0 11.0 0.00 0.00 0.00 65 1016.7
20260906042347 68 257 7.0 12.0 0.00 0.00 0.00 65 1016.7
20260906041850 68 258 6.0 11.0 0.00 0.00 0.00 63 1016.7
20260906041353 68 263 6.0 11.0 0.00 0.00 0.00 63 1016.6
20260906040856 68 265 8.0 13.0 0.00 0.00 0.00 63 1016.6
20260906040359 68 259 7.0 13.0 0.00 0.00 0.00 63 1016.6
20260906035902 68 257 8.0 12.0 0.00 0.00 0.00 62 1016.5
20260906035405 68 264 7.0 14.0 0.00 0.00 0.00 61 1016.4
20260906034908 69 284 8.0 14.0 0.00 0.00 0.00 60 1016.3
20260906034411 69 262 7.0 13.0 0.00 0.00 0.00 61 1016.4
20260906033914 69 262 7.0 14.0 0.00 0.00 0.00 60 1016.3
20260906033417 69 277 8.0 14.0 0.00 0.00 0.00 60 1016.1
20260906032920 69 268 7.0 12.0 0.00 0.00 0.00 59 1016.1
20260906032423 69 266 8.0 12.0 0.00 0.00 0.00 59 1016.1
20260906031926 69 278 6.0 12.0 0.00 0.00 0.00 59 1016.2
20260906031429 70 280 7.0 12.0 0.00 0.00 0.00 59 1016.0
20260906030932 70 273 8.0 12.0 0.00 0.00 0.00 59 1016.0
20260906030435 70 261 9.0 12.0 0.00 0.00 0.00 59 1016.0
20260906025442 70 269 9.0 16.0 0.00 0.00 0.00 58 1015.7
20260906024944 70 267 7.0 13.0 0.00 0.00 0.00 58 1015.8
20260906024447 71 266 9.0 14.0 0.00 0.00 0.00 57 1015.8
20260906023950 71 280 10.0 14.0 0.00 0.00 0.00 57 1015.8
20260906022956 71 274 7.0 14.0 0.00 0.00 0.00 56 1015.8
20260906022459 71 280 8.0 14.0 0.00 0.00 0.00 56 1015.8
20260906022002 72 285 9.0 14.0 0.00 0.00 0.00 55 1015.8
20260906015517 73 258 9.0 20.0 0.00 0.00 0.00 54 1015.9
20260906014026 75 277 9.0 17.0 0.00 0.00 0.00 51 1015.9
20260906013529 76 283 9.0 15.0 0.00 0.00 0.00 50 1016.0
20260906012535 76 259 7.0 14.0 0.00 0.00 0.00 50 1016.2
20260906012038 76 242 10.0 14.0 0.00 0.00 0.00 50 1016.3
20260906011044 77 269 6.0 19.0 0.00 0.00 0.00 49 1016.2
20260906005553 78 289 11.0 17.0 0.00 0.00 0.00 48 1016.1
20260906005130 69 276 9.0 16.0 0.00 0.00 0.00 47 1016.0
20260906005056 0 276 9.0 16.0 0.00 0.00 0.00 47 1016.0
20260906004559 79 261 7.0 16.0 0.00 0.00 0.00 47 1016.1
20260906004102 79 263 9.0 17.0 0.00 0.00 0.00 47 1016.1
20260906003605 79 267 11.0 17.0 0.00 0.00 0.00 48 1016.1
20260906003108 79 259 7.0 13.0 0.00 0.00 0.00 48 1016.2
20260906002114 78 264 9.0 17.0 0.00 0.00 0.00 48 1016.2
20260906001617 79 267 10.0 21.0 0.00 0.00 0.00 47 1016.1
20260906001120 79 267 13.0 21.0 0.00 0.00 0.00 46 1016.3
20260906000126 79 258 9.0 18.0 0.00 0.00 0.00 46 1016.2
20260905235629 79 259 7.0 17.0 0.00 0.00 0.00 46 1016.2
20260905235132 80 248 10.0 17.0 0.00 0.00 0.00 44 1016.2
20260905234712 80 277 9.0 18.0 0.00 0.00 0.00 43 1016.2
20260905234635 80 277 9.0 18.0 0.00 0.00 0.00 43 1016.2
20260905233641 81 255 10.0 20.0 0.00 0.00 0.00 42 1016.5
20260905233144 82 215 11.0 18.0 0.00 0.00 0.00 41 1016.4
20260905232647 82 277 9.0 19.0 0.00 0.00 0.00 40 1016.4
20260905231653 82 230 10.0 22.0 0.00 0.00 0.00 41 1016.3
20260905230659 81 247 7.0 20.0 0.00 0.00 0.00 42 1016.3
20260905230202 81 240 7.0 21.0 0.00 0.00 0.00 43 1016.3
20260905225208 81 241 8.0 22.0 0.00 0.00 0.00 43 1016.4
20260905224214 81 238 11.0 21.0 0.00 0.00 0.00 44 1016.4
20260905223717 79 245 9.0 21.0 0.00 0.00 0.00 46 1016.6
20260905223220 80 257 10.0 21.0 0.00 0.00 0.00 44 1016.5
20260905222226 80 261 15.0 24.0 0.00 0.00 0.00 42 1016.5
20260905221729 81 264 13.0 20.0 0.00 0.00 0.00 43 1016.5
20260905221232 81 262 11.0 19.0 0.00 0.00 0.00 43 1016.5
20260905220735 82 219 12.0 22.0 0.00 0.00 0.00 42 1016.6
20260905215741 81 244 11.0 21.0 0.00 0.00 0.00 43 1016.6
20260905215244 81 260 13.0 20.0 0.00 0.00 0.00 42 1016.7
20260905214747 81 234 13.0 20.0 0.00 0.00 0.00 43 1016.8
20260905214250 79 242 11.0 21.0 0.00 0.00 0.00 44 1016.8
20260905213753 78 240 7.0 21.0 0.00 0.00 0.00 45 1016.9
20260905213256 79 247 12.0 23.0 0.00 0.00 0.00 45 1017.1
20260905213205 80 262 15.0 24.0 0.00 0.00 0.00 42 1017.2
20260905212759 80 262 15.0 24.0 0.00 0.00 0.00 42 1017.2
20260905212305 81 233 12.0 24.0 0.00 0.00 0.00 42 1017.1
20260905211805 81 249 7.0 21.0 0.00 0.00 0.00 43 1017.1
20260905211308 82 236 13.0 23.0 0.00 0.00 0.00 42 1017.3
20260905210812 82 247 15.0 23.0 0.00 0.00 0.00 41 1017.3
20260905210314 81 267 14.0 22.0 0.00 0.00 0.00 41 1016.4
20260905205817 81 275 10.0 18.0 0.00 0.00 0.00 42 1016.4
20260905205320 81 265 10.0 21.0 0.00 0.00 0.00 43 1016.5
20260905204823 80 248 10.0 24.0 0.00 0.00 0.00 43 1016.5
20260905204326 79 248 11.0 24.0 0.00 0.00 0.00 44 1016.7
20260905203829 79 270 10.0 22.0 0.00 0.00 0.00 44 1016.8
20260905202835 80 266 13.0 26.0 0.00 0.00 0.00 43 1016.8
20260905202338 80 278 17.0 26.0 0.00 0.00 0.00 40 1016.8
20260905201841 80 234 7.0 20.0 0.00 0.00 0.00 42 1016.6
20260905200847 79 268 13.0 20.0 0.00 0.00 0.00 42 1016.8
20260905200350 79 271 11.0 20.0 0.00 0.00 0.00 43 1016.8
20260905195854 79 280 11.0 20.0 0.00 0.00 0.00 42 1016.7
20260905194859 79 268 12.0 22.0 0.00 0.00 0.00 40 1016.9
20260905194402 79 271 13.0 21.0 0.00 0.00 0.00 39 1017.0
20260905193905 80 277 11.0 22.0 0.00 0.00 0.00 37 1017.0
20260905193408 80 210 15.0 22.0 0.00 0.00 0.00 36 1017.2
20260905192911 80 275 15.0 22.0 0.00 0.00 0.00 35 1017.4
20260905191917 80 217 11.0 20.0 0.00 0.00 0.00 34 1017.4
20260905191421 80 265 12.0 19.0 0.00 0.00 0.00 36 1017.5
20260905190923 80 240 9.0 22.0 0.00 0.00 0.00 36 1017.6
20260905190426 80 235 14.0 22.0 0.00 0.00 0.00 36 1017.4
20260905185432 79 227 12.0 22.0 0.00 0.00 0.00 37 1017.5
20260905183941 79 276 13.0 21.0 0.00 0.00 0.00 37 1017.5
20260905183444 79 269 14.0 21.0 0.00 0.00 0.00 35 1017.6
20260905182947 79 258 13.0 21.0 0.00 0.00 0.00 36 1017.5
20260905182450 79 265 11.0 22.0 0.00 0.00 0.00 34 1017.5
20260905181953 78 206 6.0 22.0 0.00 0.00 0.00 35 1017.7
20260905181456 79 253 11.0 18.0 0.00 0.00 0.00 32 1017.6
20260905180959 78 247 9.0 23.0 0.00 0.00 0.00 34 1017.8
20260905180502 78 272 13.0 23.0 0.00 0.00 0.00 34 1017.7
20260905175011 77 264 14.0 24.0 0.00 0.00 0.00 38 1017.5
20260905174017 76 271 12.0 23.0 0.00 0.00 0.00 38 1017.4
20260905173520 76 271 12.0 23.0 0.00 0.00 0.00 42 1017.5
20260905172526 77 277 10.0 24.0 0.00 0.00 0.00 42 1017.4
20260905172029 77 238 9.0 22.0 0.00 0.00 0.00 41 1017.5
20260905171035 76 243 9.0 24.0 0.00 0.00 0.00 39 1017.5
20260905170041 76 276 13.0 21.0 0.00 0.00 0.00 35 1016.4
20260905165047 75 259 10.0 17.0 0.00 0.00 0.00 34 1016.7
20260905164053 75 270 13.0 19.0 0.00 0.00 0.00 32 1016.6
20260905163556 73 278 12.0 18.0 0.00 0.00 0.00 31 1016.6
20260905163059 75 271 10.0 21.0 0.00 0.00 0.00 28 1016.6
20260905161112 75 221 9.0 17.0 0.00 0.00 0.00 24 1016.7
20260905160614 75 279 7.0 16.0 0.00 0.00 0.00 22 1016.7
20260905160117 75 270 6.0 18.0 0.00 0.00 0.00 22 1016.8
20260905154626 74 213 9.0 16.0 0.00 0.00 0.00 20 1016.8
20260905154129 73 216 11.0 15.0 0.00 0.00 0.00 20 1016.7
20260905153135 72 226 7.0 17.0 0.00 0.00 0.00 20 1016.7
20260905152141 71 210 10.0 17.0 0.00 0.00 0.00 20 1016.6
20260905151644 71 220 9.0 17.0 0.00 0.00 0.00 20 1016.5
20260905151147 70 211 9.0 17.0 0.00 0.00 0.00 19 1016.5
20260905150153 70 201 6.0 13.0 0.00 0.00 0.00 18 1016.3
20260905145656 69 245 1.0 13.0 0.00 0.00 0.00 19 1016.2
20260905144702 69 218 5.0 10.0 0.00 0.00 0.00 18 1016.2
20260905143752 68 195 6.0 15.0 0.00 0.00 0.00 19 1016.1
20260905143708 68 195 6.0 15.0 0.00 0.00 0.00 19 1016.1
20260905142217 67 197 4.0 16.0 0.00 0.00 0.00 20 1016.0
20260905141223 66 318 3.0 10.0 0.00 0.00 0.00 22 1015.8
20260905140229 65 223 4.0 12.0 0.00 0.00 0.00 23 1015.8
20260905134738 64 267 4.0 10.0 0.00 0.00 0.00 24 1015.4
20260905134241 64 277 3.0 9.0 0.00 0.00 0.00 25 1015.4
20260905133744 64 218 3.0 12.0 0.00 0.00 0.00 25 1015.4
20260905133247 64 273 4.0 12.0 0.00 0.00 0.00 26 1015.1
20260905132750 64 252 4.0 11.0 0.00 0.00 0.00 26 1015.2
20260905132253 64 259 6.0 11.0 0.00 0.00 0.00 26 1015.2
20260905131756 64 271 4.0 10.0 0.00 0.00 0.00 26 1015.1
20260905131259 63 264 5.0 10.0 0.00 0.00 0.00 26 1015.0
20260905130802 63 262 4.0 12.0 0.00 0.00 0.00 26 1015.0
20260905130305 63 246 3.0 12.0 0.00 0.00 0.00 27 1015.0
20260905125808 63 237 4.0 10.0 0.00 0.00 0.00 27 1015.0
20260905125311 63 266 4.0 11.0 0.00 0.00 0.00 26 1014.9
20260905123323 63 235 5.0 12.0 0.00 0.00 0.00 25 1014.9
20260905122826 63 212 6.0 12.0 0.00 0.00 0.00 26 1014.8
20260905121832 63 246 5.0 11.0 0.00 0.00 0.00 25 1014.8
20260905121335 63 270 6.0 11.0 0.00 0.00 0.00 25 1014.9
20260905120838 63 270 6.0 10.0 0.00 0.00 0.00 25 1014.9
20260905120341 63 274 4.0 9.0 0.00 0.00 0.00 25 1014.9
20260905115845 63 261 4.0 14.0 0.00 0.00 0.00 1014.9
20260905115347 63 260 6.0 14.0 0.00 0.00 0.00 24 1014.9
20260905113856 63 279 7.0 14.0 0.00 0.00 0.00 24 1014.9
20260905113359 63 279 7.0 14.0 0.00 0.00 0.00 24 1014.8
20260905112902 63 280 7.0 10.0 0.00 0.00 0.00 23 1014.8
20260905112405 63 281 6.0 10.0 0.00 0.00 0.00 23 1014.8
20260905111411 63 262 3.0 10.0 0.00 0.00 0.00 23 1014.8
20260905110914 62 285 5.0 10.0 0.00 0.00 0.00 23 1014.9
20260905110417 62 271 4.0 10.0 0.00 0.00 0.00 23 1015.1
20260905105920 62 278 4.0 9.0 0.00 0.00 0.00 23 1015.1
20260905105423 62 267 4.0 9.0 0.00 0.00 0.00 22 1015.1
20260905104926 62 298 4.0 8.0 0.00 0.00 0.00 22 1015.1
20260905104429 62 307 3.0 5.0 0.00 0.00 0.00 22 1015.0
20260905103932 62 323 1.0 5.0 0.00 0.00 0.00 22 1015.0
20260905102939 62 263 2.0 5.0 0.00 0.00 0.00 21 1015.0
20260905101944 62 283 2.0 8.0 0.00 0.00 0.00 21 1015.0
20260905101447 62 284 3.0 9.0 0.00 0.00 0.00 21 1014.9
20260905100950 62 246 4.0 9.0 0.00 0.00 0.00 21 1015.1
20260905095957 62 322 2.0 8.0 0.00 0.00 0.00 21 1015.1
20260905095459 62 294 2.0 8.0 0.00 0.00 0.00 22 1015.1
20260905095003 62 162 3.0 7.0 0.00 0.00 0.00 22 1015.2
20260905093511 61 290 3.0 8.0 0.00 0.00 0.00 25 1015.3
20260905093014 61 260 2.0 8.0 0.00 0.00 0.00 26 1015.3
20260905092517 61 276 3.0 7.0 0.00 0.00 0.00 27 1015.3
20260905091523 61 282 1.0 6.0 0.00 0.00 0.00 32 1015.2